Tracking 29892 objects as of 21-Nov-2024
HD Live streaming from Space Station
objects crossing your sky now

SL-12 DEB

Track SL-12 DEB now!
10-day predictions


NORAD ID: 36882
Int'l Code: 1989-001V
Perigee: 747.5 km
Apogee: 4,706.1 km
Inclination: 64.8 °
Period: 143.9 minutes
Semi major axis: 9097 km
RCS: 0.044 m2 (small)
Launch date: January 10, 1989
Source: Commonwealth of Independent States (former USSR) (CIS)
Launch site: TYURATAM MISSILE AND SPACE COMPLEX (TTMTR)

Note: This is SATELLITE DEBRIS
Your satellite tracking list
Your tracking list is empty




NASA's NSSDC Master Catalog

Two Line Element Set (TLE):
1 36882U 89001V   24325.87123476  .00046432  00000-0  11659+0 0  9999
2 36882  64.8273  73.0065 2175572 154.6693 217.9191 10.00455558498131
Source of the keplerian elements: AFSPC